Tracking 19193 objects as of 24-Jun-2018
HD Live streaming from Space Station
objects crossing your sky now

SL-3 R/B

Track SL-3 R/B now!
10-day predictions
SL-3 R/B is classified as:


NORAD ID: 13154
Int'l Code: 1982-039B
Perigee: 550.5 km
Apogee: 606.8 km
Inclination: 81.2 °
Period: 96.1 minutes
Semi major axis: 6949 km
RCS: 5.8414 m2 (large)
Launch date: May 5, 1982
Source: Commonwealth of Independent States (former USSR) (CIS)
Launch site: PLESETSK MISSILE AND SPACE COMPLEX (PKMTR)

Note: This is a ROCKET BODY
aabbcc
Your satellite tracking list
Your tracking list is empty




NASA's NSSDC Master Catalog

Two Line Element Set (TLE):
1 13154U 82039B   18174.96663330 +.00000170 +00000-0 +12112-4 0  9992
2 13154 081.1822 170.6627 0040574 159.5122 200.7736 14.98506444959139
Source of the keplerian elements: AFSPC